Location: Asheville, NC
(35.6000°N, 82.5500°W)
Time: 16:55:58
(UTC-04:00)

ISS - Pass Details

Date: 07 May 2026
Orbit: 414 x 424 km, 51.6° (Epoch: 15 May)

Event Time Altitude Azimuth Distance (km) Brightness Sun altitude
Rises 05:07:02 0° 317° (NW) 2,358 0.0 -16.1°
Reaches altitude 10° 05:09:11 10° 324° (NW) 1,494 -1.0 -15.7°
Maximum altitude 05:12:25 44° 38° (NE) 585 -2.6 -15.2°
Drops below altitude 10° 05:15:39 10° 112° (ESE) 1,492 -0.5 -14.6°
Sets 05:17:48 0° 119° (ESE) 2,355 0.4 -14.3°
